{"data":{"norad_id":64066,"epoch":"2026-05-24T23:06:08.972640Z","epoch_age_seconds":68349,"freshness":"FRESH","line1":"1 64066U 25107C   26144.96260385  .00175181  00000+0  13382-2 0  9994","line2":"2 64066  43.0004 358.5022 0002197 272.8145  87.2471 15.70874231 59290","mean_motion":15.70874231,"eccentricity":0.0002197,"inclination_deg":43.0004,"raan_deg":358.5022,"arg_perigee_deg":272.8145,"mean_anomaly_deg":87.2471,"bstar":0.0013382,"rev_number":5929,"period_min":91.668700878957,"perigee_km":354.91764757162,"apogee_km":357.87680190997,"semimajor_km":6734.5342247408,"source":"CELESTRAK","updated_at":"2026-05-25T13:38:20.257651Z"}}